EWG3CB EDDS-LEPA

Flight info

Callsign EWG3CB
Flight time 1h 45m
Altitude 31000
Route ROTWE1K ROTWE Y126 TUBLO N850 NATOR DCT LUTIX DCT BENOT/N0446F350 DCT NEMOS DCT GEVEA DCT INCUS/N0450F370 DCT BALSI DCT RETNO DCT TUPOX DCT MTG DCT DIVKO DCT VATIR DCT PIVUS DCT BODEQ DCT VERSO L129 LUNIK
Aircraft A320/M-SDE3FGHIRWY/LB1

Departure

Time 2026-05-05 09:20
Airport Stuttgart Airport (EDDS)

Arrival

Time 2026-05-05 11:05
Airport Palma de Mallorca Airport (LEPA)
Time Latitude Longitude Altitude Speed Heading
2026-05-05 08:47 48.68743 9.19394 1311 ft 0 kts 164°
2026-05-05 09:16 48.68741 9.19395 1311 ft 1 kts 164°
2026-05-05 09:16 48.68731 9.19400 1310 ft 3 kts 163°
2026-05-05 09:16 48.68708 9.19410 1310 ft 4 kts 163°
2026-05-05 09:16 48.68684 9.19439 1308 ft 5 kts 104°
2026-05-05 09:17 48.68693 9.19508 1306 ft 8 kts 75°
2026-05-05 09:17 48.68711 9.19604 1303 ft 11 kts 73°
2026-05-05 09:17 48.68737 9.19740 1299 ft 16 kts 74°
2026-05-05 09:17 48.68765 9.19899 1295 ft 14 kts 87°
2026-05-05 09:18 48.68684 9.19986 1289 ft 14 kts 163°
2026-05-05 09:18 48.68589 9.20029 1285 ft 5 kts 155°
2026-05-05 09:18 48.68586 9.20079 1283 ft 5 kts 77°
2026-05-05 09:18 48.68597 9.20137 1282 ft 6 kts 74°
2026-05-05 09:19 48.68627 9.20297 1278 ft 41 kts 73°
2026-05-05 09:19 48.68774 9.21062 1262 ft 109 kts 73°
2026-05-05 09:19 48.69038 9.22461 1230 ft 164 kts 74°
2026-05-05 09:19 48.69371 9.24209 1627 ft 175 kts 74°
2026-05-05 09:20 48.69704 9.25966 2342 ft 175 kts 73°
2026-05-05 09:20 48.69849 9.27794 3026 ft 177 kts 97°
2026-05-05 09:20 48.69406 9.29507 3628 ft 176 kts 128°
2026-05-05 09:20 48.68559 9.30946 3993 ft 192 kts 135°
2026-05-05 09:21 48.67419 9.32122 4281 ft 211 kts 158°
2026-05-05 09:21 48.65957 9.32478 4820 ft 218 kts 184°
2026-05-05 09:21 48.64501 9.31822 5434 ft 221 kts 210°
2026-05-05 09:21 48.63378 9.30220 6080 ft 224 kts 236°
2026-05-05 09:22 48.62613 9.28158 6550 ft 233 kts 240°
2026-05-05 09:22 48.61830 9.25870 6798 ft 256 kts 247°
2026-05-05 09:22 48.61339 9.23159 7238 ft 274 kts 255°
2026-05-05 09:22 48.60872 9.20356 7917 ft 280 kts 253°
2026-05-05 09:23 48.60367 9.17474 8681 ft 284 kts 253°
2026-05-05 09:23 48.59852 9.14601 9455 ft 287 kts 253°
2026-05-05 09:23 48.59318 9.11650 10113 ft 295 kts 253°
2026-05-05 09:23 48.58753 9.08535 10308 ft 319 kts 253°
2026-05-05 09:24 48.58148 9.05201 10592 ft 337 kts 253°
2026-05-05 09:24 48.57532 9.01787 11204 ft 342 kts 253°
2026-05-05 09:24 48.56902 8.98285 11929 ft 345 kts 252°
2026-05-05 09:24 48.56254 8.94769 12645 ft 347 kts 249°
2026-05-05 09:25 48.55172 8.91578 13333 ft 345 kts 230°
2026-05-05 09:25 48.53559 8.88868 13998 ft 346 kts 224°
2026-05-05 09:25 48.51910 8.86268 14608 ft 348 kts 224°
2026-05-05 09:25 48.50222 8.83633 15217 ft 350 kts 224°
2026-05-05 09:26 48.48504 8.80961 15829 ft 353 kts 224°
2026-05-05 09:26 48.46790 8.78294 16428 ft 356 kts 224°
2026-05-05 09:26 48.45068 8.75615 17005 ft 359 kts 224°
2026-05-05 09:26 48.43317 8.72884 17616 ft 362 kts 224°
2026-05-05 09:27 48.41574 8.70163 18189 ft 365 kts 224°
2026-05-05 09:27 48.39801 8.67396 18691 ft 368 kts 224°
2026-05-05 09:27 48.38019 8.64619 19197 ft 370 kts 224°
2026-05-05 09:27 48.36234 8.61842 19717 ft 373 kts 224°
2026-05-05 09:28 48.34409 8.59007 20224 ft 376 kts 224°
2026-05-05 09:28 48.32598 8.56199 20729 ft 379 kts 224°
2026-05-05 09:28 48.30747 8.53334 21236 ft 381 kts 224°
2026-05-05 09:28 48.28905 8.50491 21732 ft 384 kts 224°
2026-05-05 09:29 48.27027 8.47597 22210 ft 387 kts 224°
2026-05-05 09:29 48.25137 8.44678 22692 ft 390 kts 224°
2026-05-05 09:29 48.23253 8.41765 23149 ft 392 kts 224°
2026-05-05 09:29 48.21345 8.38817 23578 ft 395 kts 224°
2026-05-05 09:30 48.19416 8.35840 23944 ft 397 kts 224°
2026-05-05 09:30 48.17461 8.32894 24340 ft 398 kts 220°
2026-05-05 09:30 48.15270 8.30427 24721 ft 397 kts 211°
2026-05-05 09:30 48.12934 8.28188 25109 ft 398 kts 211°
2026-05-05 09:31 48.10621 8.25968 25475 ft 399 kts 211°
2026-05-05 09:31 48.08275 8.23711 25843 ft 400 kts 211°
2026-05-05 09:31 48.05924 8.21450 26208 ft 402 kts 211°
2026-05-05 09:31 48.03564 8.19177 26560 ft 403 kts 211°
2026-05-05 09:32 48.01231 8.16924 26902 ft 404 kts 211°
2026-05-05 09:32 47.98863 8.14641 27239 ft 406 kts 211°
2026-05-05 09:32 47.96471 8.12342 27568 ft 407 kts 210°
2026-05-05 09:32 47.94066 8.10038 27891 ft 409 kts 210°
2026-05-05 09:33 47.91688 8.07761 28193 ft 411 kts 210°
2026-05-05 09:33 47.89260 8.05438 28505 ft 413 kts 210°
2026-05-05 09:33 47.86857 8.03143 28833 ft 414 kts 210°
2026-05-05 09:33 47.84441 8.00838 29167 ft 416 kts 210°
2026-05-05 09:34 47.81993 7.98503 29479 ft 418 kts 210°
2026-05-05 09:34 47.79532 7.96162 29767 ft 420 kts 209°
2026-05-05 09:34 47.77060 7.93816 30028 ft 421 kts 209°
2026-05-05 09:34 47.74607 7.91489 30244 ft 422 kts 209°
2026-05-05 09:35 47.72110 7.89123 30459 ft 423 kts 210°
2026-05-05 09:35 47.67151 7.84430 31080 ft 420 kts 209°
2026-05-05 09:35 47.64683 7.82095 31421 ft 418 kts 210°
2026-05-05 09:36 47.62266 7.79810 31758 ft 416 kts 210°
2026-05-05 09:36 47.59806 7.77486 32113 ft 414 kts 210°
2026-05-05 09:36 47.57409 7.75225 32452 ft 412 kts 210°
2026-05-05 09:36 47.54993 7.72952 32793 ft 410 kts 210°
2026-05-05 09:37 47.52577 7.70681 33094 ft 408 kts 210°
2026-05-05 09:37 47.50209 7.68455 33367 ft 408 kts 210°
2026-05-05 09:37 47.47806 7.66199 33662 ft 406 kts 210°
2026-05-05 09:37 47.45434 7.63980 33956 ft 405 kts 210°
2026-05-05 09:38 47.43048 7.61751 34195 ft 404 kts 210°
2026-05-05 09:38 47.40662 7.59520 34381 ft 404 kts 210°
2026-05-05 09:38 47.38306 7.57317 34559 ft 405 kts 210°
2026-05-05 09:38 47.35913 7.55080 34743 ft 405 kts 210°
2026-05-05 09:39 47.33517 7.52847 34873 ft 406 kts 210°
2026-05-05 09:39 47.31155 7.50649 34902 ft 407 kts 210°
2026-05-05 09:39 47.26340 7.46174 34915 ft 407 kts 210°
2026-05-05 09:40 47.21552 7.41726 34893 ft 408 kts 210°
2026-05-05 09:40 47.16853 7.37054 34892 ft 411 kts 219°
2026-05-05 09:41 47.13048 7.30685 34893 ft 416 kts 229°
2026-05-05 09:41 47.09465 7.24071 34903 ft 416 kts 228°
2026-05-05 09:42 47.05860 7.17460 34913 ft 416 kts 228°
2026-05-05 09:42 47.02245 7.10838 34915 ft 416 kts 228°
2026-05-05 09:43 46.98610 7.04185 34919 ft 416 kts 228°
2026-05-05 09:43 46.94998 6.97598 34919 ft 415 kts 229°
2026-05-05 09:44 46.91326 6.91072 34919 ft 414 kts 223°
2026-05-05 09:44 46.86970 6.85621 34920 ft 413 kts 217°
2026-05-05 09:45 46.82512 6.80295 34921 ft 413 kts 217°
2026-05-05 09:45 46.78087 6.75028 34919 ft 413 kts 217°
2026-05-05 09:46 46.73638 6.69755 34916 ft 411 kts 218°
2026-05-05 09:46 46.69204 6.64501 34915 ft 411 kts 218°
2026-05-05 09:47 46.64750 6.59239 34913 ft 411 kts 218°
2026-05-05 09:47 46.60327 6.54022 34909 ft 411 kts 218°
2026-05-05 09:48 46.55888 6.48813 34909 ft 411 kts 217°
2026-05-05 09:48 46.51427 6.43582 34909 ft 411 kts 217°
2026-05-05 09:49 46.46988 6.38378 34909 ft 411 kts 217°
2026-05-05 09:49 46.42535 6.33159 34909 ft 411 kts 217°
2026-05-05 09:50 46.38086 6.27966 34919 ft 411 kts 218°
2026-05-05 09:50 46.33643 6.22799 34919 ft 410 kts 218°
2026-05-05 09:51 46.29177 6.17611 34920 ft 410 kts 217°
2026-05-05 09:51 46.24301 6.13485 34920 ft 409 kts 200°
2026-05-05 09:52 46.18760 6.11749 34922 ft 410 kts 190°
2026-05-05 09:52 46.13110 6.10498 34920 ft 410 kts 190°
2026-05-05 09:53 46.07454 6.09237 34919 ft 410 kts 190°
2026-05-05 09:53 46.01817 6.07992 34919 ft 410 kts 190°
2026-05-05 09:54 45.96204 6.06747 34920 ft 409 kts 191°
2026-05-05 09:54 45.90568 6.05500 34921 ft 409 kts 191°
2026-05-05 09:55 45.84965 6.04260 34920 ft 409 kts 191°
2026-05-05 09:55 45.79339 6.03018 34917 ft 409 kts 191°
2026-05-05 09:56 45.73691 6.01765 34921 ft 409 kts 191°
2026-05-05 09:56 45.68094 6.00526 35005 ft 410 kts 191°
2026-05-05 09:57 45.65280 5.99905 35214 ft 410 kts 191°
2026-05-05 09:57 45.63409 5.99495 35361 ft 410 kts 191°
2026-05-05 09:57 45.60595 5.98881 35540 ft 410 kts 191°
2026-05-05 09:57 45.57763 5.98264 35711 ft 410 kts 191°
2026-05-05 09:58 45.54936 5.97647 35882 ft 411 kts 191°
2026-05-05 09:58 45.51183 5.96827 36104 ft 411 kts 191°
2026-05-05 09:58 45.49270 5.96409 36213 ft 411 kts 191°
2026-05-05 09:58 45.46445 5.95762 36373 ft 411 kts 193°
2026-05-05 09:59 45.43671 5.94993 36508 ft 411 kts 194°
2026-05-05 09:59 45.40865 5.94107 36654 ft 411 kts 196°
2026-05-05 09:59 45.38073 5.93175 36851 ft 410 kts 196°
2026-05-05 09:59 45.35319 5.92249 36924 ft 411 kts 196°
2026-05-05 10:00 45.29739 5.90429 36936 ft 410 kts 195°
2026-05-05 10:00 45.24174 5.88701 36931 ft 410 kts 195°
2026-05-05 10:01 45.18575 5.86983 36929 ft 409 kts 195°
2026-05-05 10:01 45.13033 5.85266 36928 ft 409 kts 195°
2026-05-05 10:02 45.07484 5.83547 36933 ft 409 kts 195°
2026-05-05 10:02 45.01934 5.81838 36917 ft 407 kts 196°
2026-05-05 10:03 44.96389 5.80129 36944 ft 408 kts 196°
2026-05-05 10:03 44.90838 5.78421 36950 ft 407 kts 196°
2026-05-05 10:04 44.85313 5.76730 36947 ft 406 kts 196°
2026-05-05 10:04 44.79843 5.75061 36950 ft 404 kts 196°
2026-05-05 10:05 44.74354 5.73385 36954 ft 403 kts 196°
2026-05-05 10:05 44.68872 5.71710 36957 ft 403 kts 196°
2026-05-05 10:06 44.63400 5.70038 36972 ft 403 kts 196°
2026-05-05 10:06 44.57900 5.68365 36960 ft 403 kts 196°
2026-05-05 10:07 44.52434 5.66709 36961 ft 403 kts 196°
2026-05-05 10:07 44.46914 5.65045 36953 ft 404 kts 196°
2026-05-05 10:08 44.41435 5.63393 36955 ft 404 kts 196°
2026-05-05 10:08 44.36065 5.61302 36958 ft 399 kts 205°
2026-05-05 10:09 44.30921 5.58453 36962 ft 399 kts 205°
2026-05-05 10:09 44.25766 5.55632 36948 ft 398 kts 204°
2026-05-05 10:10 44.20590 5.52815 36959 ft 397 kts 204°
2026-05-05 10:10 44.15450 5.50019 36963 ft 397 kts 205°
2026-05-05 10:11 44.10327 5.47233 36962 ft 396 kts 204°
2026-05-05 10:11 44.05170 5.44431 36952 ft 395 kts 205°
2026-05-05 10:12 44.00071 5.41665 36960 ft 395 kts 205°
2026-05-05 10:12 43.94962 5.38898 36962 ft 395 kts 205°
2026-05-05 10:13 43.89835 5.36119 36940 ft 394 kts 205°
2026-05-05 10:13 43.84725 5.33357 36951 ft 394 kts 205°
2026-05-05 10:14 43.79634 5.30610 36973 ft 394 kts 205°
2026-05-05 10:14 43.74493 5.27847 36967 ft 394 kts 205°
2026-05-05 10:15 43.69398 5.25112 36945 ft 394 kts 205°
2026-05-05 10:15 43.64307 5.22373 36949 ft 393 kts 205°
2026-05-05 10:16 43.59211 5.19639 36973 ft 393 kts 205°
2026-05-05 10:16 43.54115 5.16922 36977 ft 393 kts 205°
2026-05-05 10:17 43.48992 5.14194 36968 ft 393 kts 205°
2026-05-05 10:17 43.43915 5.11492 36971 ft 393 kts 205°
2026-05-05 10:18 43.38869 5.08696 36969 ft 390 kts 211°
2026-05-05 10:18 43.34358 5.04662 36968 ft 387 kts 217°
2026-05-05 10:19 43.29918 5.00465 36945 ft 388 kts 217°
2026-05-05 10:19 43.25448 4.96257 36947 ft 388 kts 217°
2026-05-05 10:20 43.20998 4.92084 36973 ft 388 kts 217°
2026-05-05 10:20 43.16566 4.87929 36972 ft 387 kts 217°
2026-05-05 10:21 43.12099 4.83753 36950 ft 387 kts 217°
2026-05-05 10:21 43.07655 4.79603 36954 ft 387 kts 217°
2026-05-05 10:22 43.03074 4.75742 36956 ft 389 kts 212°
2026-05-05 10:22 42.98332 4.72139 36958 ft 389 kts 212°
2026-05-05 10:23 42.93614 4.68579 36960 ft 389 kts 212°
2026-05-05 10:23 42.88856 4.64987 36951 ft 390 kts 212°
2026-05-05 10:24 42.84123 4.61417 36958 ft 390 kts 212°
2026-05-05 10:24 42.79356 4.57826 36965 ft 390 kts 212°
2026-05-05 10:25 42.74620 4.54258 36983 ft 390 kts 212°
2026-05-05 10:25 42.69877 4.50689 36979 ft 390 kts 212°
2026-05-05 10:26 42.65134 4.47134 36983 ft 390 kts 212°
2026-05-05 10:26 42.60385 4.43577 36984 ft 390 kts 212°
2026-05-05 10:27 42.55613 4.40020 36980 ft 390 kts 212°
2026-05-05 10:27 42.50864 4.36479 36952 ft 389 kts 212°
2026-05-05 10:28 42.46122 4.32946 36953 ft 390 kts 212°
2026-05-05 10:28 42.41368 4.29409 36961 ft 390 kts 212°
2026-05-05 10:29 42.36626 4.25890 36962 ft 390 kts 212°
2026-05-05 10:29 42.31875 4.22374 36943 ft 390 kts 212°
2026-05-05 10:30 42.27110 4.18847 36973 ft 390 kts 212°
2026-05-05 10:30 42.22327 4.15315 36979 ft 390 kts 212°
2026-05-05 10:31 42.17568 4.11813 36981 ft 390 kts 212°
2026-05-05 10:31 42.12811 4.08313 36981 ft 390 kts 212°
2026-05-05 10:32 42.08043 4.04811 36969 ft 390 kts 212°
2026-05-05 10:32 42.03286 4.01316 36971 ft 390 kts 212°
2026-05-05 10:33 41.98534 3.97845 36978 ft 390 kts 212°
2026-05-05 10:33 41.93735 3.94384 36977 ft 391 kts 208°
2026-05-05 10:34 41.88441 3.92433 36948 ft 400 kts 195°
2026-05-05 10:34 41.82967 3.91187 36960 ft 400 kts 195°
2026-05-05 10:35 41.77462 3.89918 36971 ft 400 kts 195°
2026-05-05 10:35 41.71988 3.88661 36974 ft 400 kts 195°
2026-05-05 10:36 41.66512 3.87400 36955 ft 401 kts 196°
2026-05-05 10:36 41.60997 3.86133 36964 ft 401 kts 196°
2026-05-05 10:37 41.55514 3.84865 36971 ft 401 kts 196°
2026-05-05 10:37 41.50008 3.83595 36975 ft 401 kts 196°
2026-05-05 10:38 41.44507 3.82334 36956 ft 400 kts 196°
2026-05-05 10:38 41.39035 3.81089 36978 ft 400 kts 196°
2026-05-05 10:39 41.33525 3.79845 36990 ft 400 kts 196°
2026-05-05 10:39 41.28039 3.78587 36965 ft 400 kts 197°
2026-05-05 10:40 41.22563 3.77333 36976 ft 400 kts 197°
2026-05-05 10:40 41.17097 3.76100 36980 ft 399 kts 197°
2026-05-05 10:41 41.11906 3.73957 36978 ft 390 kts 207°
2026-05-05 10:41 41.06833 3.71331 36943 ft 390 kts 207°
2026-05-05 10:42 40.99242 3.67428 36966 ft 390 kts 207°
2026-05-05 10:42 40.96750 3.66150 36685 ft 387 kts 207°
2026-05-05 10:43 40.94233 3.64860 35930 ft 388 kts 207°
2026-05-05 10:43 40.91695 3.63549 35063 ft 392 kts 207°
2026-05-05 10:43 40.89143 3.62230 34301 ft 393 kts 208°
2026-05-05 10:43 40.86616 3.60932 33515 ft 392 kts 208°
2026-05-05 10:44 40.84069 3.59628 32605 ft 392 kts 207°
2026-05-05 10:44 40.81511 3.58321 31742 ft 392 kts 207°
2026-05-05 10:44 40.78975 3.57029 31299 ft 384 kts 207°
2026-05-05 10:44 40.76525 3.55786 30806 ft 378 kts 207°
2026-05-05 10:45 40.74078 3.54542 30261 ft 374 kts 207°
2026-05-05 10:45 40.71683 3.53323 29667 ft 370 kts 207°
2026-05-05 10:45 40.69286 3.52105 29027 ft 367 kts 207°
2026-05-05 10:45 40.66894 3.50886 28386 ft 365 kts 207°
2026-05-05 10:46 40.65327 3.50086 27977 ft 363 kts 207°
2026-05-05 10:46 40.62211 3.48497 27172 ft 360 kts 207°
2026-05-05 10:46 40.60656 3.47706 26772 ft 358 kts 207°
2026-05-05 10:46 40.58332 3.46524 26189 ft 357 kts 207°
2026-05-05 10:47 40.56019 3.45351 25612 ft 355 kts 206°
2026-05-05 10:47 40.53740 3.44197 25085 ft 353 kts 206°
2026-05-05 10:47 40.51435 3.43029 24549 ft 351 kts 206°
2026-05-05 10:47 40.49183 3.41888 24030 ft 350 kts 206°
2026-05-05 10:48 40.46898 3.40731 23516 ft 349 kts 206°
2026-05-05 10:48 40.44612 3.39742 22943 ft 352 kts 198°
2026-05-05 10:48 40.42128 3.39368 22361 ft 358 kts 186°
2026-05-05 10:48 40.39655 3.39492 21819 ft 359 kts 184°
2026-05-05 10:49 40.37155 3.39638 21304 ft 357 kts 184°
2026-05-05 10:49 40.34698 3.39778 20814 ft 355 kts 184°
2026-05-05 10:49 40.32231 3.39918 20327 ft 353 kts 184°
2026-05-05 10:49 40.29770 3.40058 19849 ft 351 kts 184°
2026-05-05 10:50 40.27360 3.40195 19387 ft 349 kts 184°
2026-05-05 10:50 40.24927 3.40332 18936 ft 347 kts 184°
2026-05-05 10:50 40.22543 3.40465 18490 ft 345 kts 184°
2026-05-05 10:50 40.20140 3.40597 17994 ft 343 kts 184°
2026-05-05 10:51 40.17748 3.40730 17479 ft 342 kts 183°
2026-05-05 10:51 40.15398 3.40864 17011 ft 340 kts 183°
2026-05-05 10:51 40.13032 3.40999 16549 ft 338 kts 183°
2026-05-05 10:51 40.10714 3.41128 16107 ft 336 kts 183°
2026-05-05 10:52 40.08377 3.41259 15673 ft 334 kts 182°
2026-05-05 10:52 40.06051 3.41393 15242 ft 332 kts 182°
2026-05-05 10:52 40.03764 3.41523 14824 ft 330 kts 182°
2026-05-05 10:52 40.01474 3.41651 14412 ft 328 kts 182°
2026-05-05 10:53 39.99219 3.41779 14001 ft 325 kts 181°
2026-05-05 10:53 39.96973 3.41907 13233 ft 320 kts 181°
2026-05-05 10:53 39.94761 3.42028 12393 ft 317 kts 181°
2026-05-05 10:53 39.92565 3.42082 11581 ft 312 kts 186°
2026-05-05 10:54 39.90436 3.41725 10800 ft 306 kts 192°
2026-05-05 10:54 39.88371 3.41252 10037 ft 303 kts 192°
2026-05-05 10:54 39.86315 3.40751 9251 ft 298 kts 193°
2026-05-05 10:54 39.84428 3.39894 8865 ft 279 kts 213°
2026-05-05 10:55 39.83047 3.38204 8410 ft 268 kts 234°
2026-05-05 10:55 39.82130 3.36121 7799 ft 263 kts 240°
2026-05-05 10:55 39.81271 3.34033 7286 ft 265 kts 240°
2026-05-05 10:55 39.80410 3.31927 6911 ft 263 kts 241°
2026-05-05 10:56 39.79548 3.29820 6519 ft 262 kts 241°
2026-05-05 10:56 39.78690 3.27728 6101 ft 261 kts 241°
2026-05-05 10:56 39.77848 3.25677 5703 ft 260 kts 241°
2026-05-05 10:56 39.76995 3.23606 5311 ft 258 kts 240°
2026-05-05 10:57 39.76148 3.21556 4947 ft 255 kts 240°
2026-05-05 10:57 39.75307 3.19515 4793 ft 256 kts 240°
2026-05-05 10:57 39.74472 3.17496 4670 ft 255 kts 240°
2026-05-05 10:57 39.73638 3.15480 4553 ft 246 kts 240°
2026-05-05 10:58 39.72847 3.13566 4489 ft 233 kts 240°
2026-05-05 10:58 39.72110 3.11783 4490 ft 224 kts 240°
2026-05-05 10:58 39.71370 3.09995 4497 ft 223 kts 240°
2026-05-05 10:58 39.70626 3.08216 4458 ft 224 kts 239°
2026-05-05 10:59 39.69841 3.06485 4328 ft 224 kts 238°
2026-05-05 10:59 39.69031 3.04765 4208 ft 220 kts 237°
2026-05-05 10:59 39.68244 3.03108 4095 ft 210 kts 237°
2026-05-05 10:59 39.67498 3.01538 3994 ft 202 kts 237°
2026-05-05 11:00 39.66772 3.00005 3988 ft 195 kts 237°
2026-05-05 11:00 39.66068 2.98517 3967 ft 197 kts 237°
2026-05-05 11:00 39.65347 2.96998 3700 ft 194 kts 237°
2026-05-05 11:00 39.64655 2.95528 3418 ft 187 kts 236°
2026-05-05 11:01 39.63990 2.94113 3179 ft 182 kts 238°
2026-05-05 11:01 39.63347 2.92743 2931 ft 177 kts 237°
2026-05-05 11:01 39.62713 2.91395 2702 ft 172 kts 237°
2026-05-05 11:01 39.62097 2.90085 2480 ft 166 kts 236°
2026-05-05 11:02 39.61509 2.88835 2257 ft 162 kts 237°
2026-05-05 11:02 39.60931 2.87604 2044 ft 156 kts 237°
2026-05-05 11:02 39.60375 2.86424 1841 ft 149 kts 235°
2026-05-05 11:02 39.59859 2.85325 1653 ft 140 kts 235°
2026-05-05 11:03 39.59357 2.84261 1483 ft 135 kts 237°
2026-05-05 11:03 39.58867 2.83221 1297 ft 134 kts 236°
2026-05-05 11:03 39.58381 2.82192 1118 ft 134 kts 236°
2026-05-05 11:03 39.57887 2.81144 939 ft 137 kts 237°
2026-05-05 11:04 39.57393 2.80093 777 ft 138 kts 237°
2026-05-05 11:04 39.56893 2.79035 619 ft 139 kts 238°
2026-05-05 11:04 39.56393 2.77972 374 ft 136 kts 239°
2026-05-05 11:04 39.55908 2.76944 220 ft 136 kts 238°
2026-05-05 11:05 39.55421 2.75907 46 ft 132 kts 239°
2026-05-05 11:05 39.55003 2.75023 38 ft 93 kts 238°
2026-05-05 11:05 39.54755 2.74502 38 ft 44 kts 238°
2026-05-05 11:05 39.54630 2.74237 38 ft 32 kts 238°
2026-05-05 11:06 39.54557 2.73986 38 ft 29 kts 262°
2026-05-05 11:06 39.54552 2.73758 38 ft 15 kts 271°
2026-05-05 11:06 39.54591 2.73643 38 ft 5 kts 317°
2026-05-05 11:06 39.54620 2.73621 38 ft 4 kts 335°
2026-05-05 11:07 39.54645 2.73619 38 ft 3 kts 356°
2026-05-05 11:07 39.54662 2.73615 38 ft 3 kts 343°
2026-05-05 11:07 39.54686 2.73596 38 ft 6 kts 332°
2026-05-05 11:07 39.54727 2.73564 38 ft 8 kts 327°
2026-05-05 11:08 39.54779 2.73524 38 ft 8 kts 329°
2026-05-05 11:08 39.54825 2.73495 38 ft 7 kts 353°
2026-05-05 11:08 39.54858 2.73523 37 ft 5 kts 46°
2026-05-05 11:08 39.54865 2.73534 38 ft 0 kts 46°